EW7175 Weather Reports


Display with metric or nautical units.
time (UTC)temp
F
wind
direction
speed
MPH
gust
MPH
rain 1hr
in
rain 24hr
in
rain mn
in
humidity
%
barometer
mb
20260504040035 67 162 0.0 0.0 0.00 0.00 0.00 62 1016.9
20260504034540 67 163 0.0 0.0 0.00 0.00 0.00 60 1016.8
20260504033035 68 165 0.0 0.0 0.00 0.00 0.00 59 1017.0
20260504031534 69 171 0.0 0.0 0.00 0.00 0.00 58 1016.9
20260504030040 70 173 0.0 0.0 0.00 0.00 0.00 55 1016.6
20260504024533 70 173 0.0 0.0 0.00 0.00 0.00 54 1016.6
20260504023033 71 207 0.0 0.0 0.00 0.00 0.00 53 1016.5
20260504021534 71 188 0.0 0.0 0.00 0.00 0.00 53 1016.5
20260504020036 71 136 0.0 0.0 0.00 0.00 0.00 52 1016.2
20260504014536 72 183 0.0 0.0 0.00 0.00 0.00 51 1016.3
20260504013034 72 171 0.0 0.0 0.00 0.00 0.00 50 1016.1
20260504011531 73 173 0.0 0.0 0.00 0.00 0.00 52 1015.7
20260504010031 74 173 0.0 0.0 0.00 0.00 0.00 49 1015.9
20260504004530 74 147 0.0 0.0 0.00 0.00 0.00 48 1015.9
20260504003029 76 193 0.0 0.0 0.00 0.00 0.00 45 1016.0
20260504001529 78 150 0.0 3.0 0.00 0.00 0.00 39 1016.0
20260504000027 79 149 1.0 3.0 0.00 0.00 0.00 37 1016.0
20260503234541 79 167 2.0 5.0 0.00 0.00 0.00 35 1016.1
20260503233026 80 155 0.0 5.0 0.00 0.00 0.00 39 1016.1
20260503231527 80 163 1.0 5.0 0.00 0.00 0.00 38 1016.2
20260503230026 80 152 1.0 6.0 0.00 0.00 0.00 37 1016.2
20260503224523 81 221 2.0 5.0 0.00 0.00 0.00 35 1016.4
20260503223021 81 116 1.0 7.0 0.00 0.00 0.00 36 1016.4
20260503221522 82 107 0.0 0.0 0.00 0.00 0.00 35 1016.7
20260503220036 82 209 0.0 0.0 0.00 0.00 0.00 35 1016.7
20260503214514 82 173 0.0 0.0 0.00 0.00 0.00 34 1016.7
20260503213011 81 153 0.0 0.0 0.00 0.00 0.00 35 1017.2
20260503211505 83 146 0.0 0.0 0.00 0.00 0.00 36 1017.4
20260503210005 83 192 0.0 0.0 0.00 0.00 0.00 33 1017.5
20260503204503 83 165 0.0 0.0 0.00 0.00 0.00 34 1017.8
20260503203104 83 135 0.0 0.0 0.00 0.00 0.00 36 1018.1
20260503201555 82 121 0.0 0.0 0.00 0.00 0.00 36 1018.3
20260503200056 82 173 0.0 0.0 0.00 0.00 0.00 37 1018.6
20260503194551 83 209 0.0 0.0 0.00 0.00 0.00 34 1018.8
20260503193053 82 174 0.0 0.0 0.00 0.00 0.00 36 1019.0
20260503191548 82 249 0.0 0.0 0.00 0.00 0.00 34 1019.3
20260503190047 83 28 0.0 0.0 0.00 0.00 0.00 35 1019.4
20260503184555 81 118 0.0 0.0 0.00 0.00 0.00 38 1019.6
20260503183054 82 186 0.0 0.0 0.00 0.00 0.00 38 1019.8
20260503181540 80 176 0.0 0.0 0.00 0.00 0.00 40 1020.1
20260503180039 80 166 0.0 0.0 0.00 0.00 0.00 37 1020.4
20260503174539 79 179 0.0 0.0 0.00 0.00 0.00 37 1020.7
20260503173040 81 177 0.0 0.0 0.00 0.00 0.00 40 1021.0
20260503171535 80 188 0.0 0.0 0.00 0.00 0.00 39 1021.3
20260503081518 58 309 0.0 0.0 0.00 0.00 0.00 93 1019.3
20260503071511 58 309 0.0 0.0 0.00 0.00 0.00 92 1019.3
20260503054507 60 309 0.0 0.0 0.00 0.00 0.00 90 1019.6
20260503053202 60 309 0.0 0.0 0.00 0.00 0.00 89 1019.4
20260503051558 60 309 0.0 0.0 0.00 0.00 0.00 88 1019.4
20260503050056 60 309 0.0 0.0 0.00 0.00 0.00 87 1019.3
20260503044604 61 309 0.0 0.0 0.00 0.00 0.00 86 1019.3
20260503043102 61 309 0.0 0.0 0.00 0.00 0.00 84 1019.2
20260503041554 61 309 0.0 0.0 0.00 0.00 0.00 84 1019.1